Location: Amon Carter Post Office
(32.8281°N, 97.0484°W)
Time: 12:48:01
(UTC+00:00)

Sich 1 - Pass Details

Date: 13 July 2022
Orbit: 593 x 622 km, 82.5° (Epoch: 12 August)

Event Time Altitude Azimuth Distance (km) Brightness Sun altitude
Exits shadow 07:55:46 19° 66° (ENE) 1,416 5.3 -32.0°
Drops below altitude 10° 07:57:52 10° 39° (NE) 1,932 6.4 -31.8°
Sets 08:00:27 0° 24° (NNE) 2,836 7.6 -31.6°
